Погода в Начале

Россия / Воронежская область     50°13′43″N   39°34′29″E
темп.,
°C
ветер,
м/с
пор.,
м/с
влажн.,
%
обл.,
%
осадки,
мм/ч
давл.,
гПа
погр.,
м
22 января, сб
сб2200:00−9ююз411945 0.0 1009177
03:00−12ю379755 0.0 1010102
06:00−9ююз4119590 0.0 1010246
09:00−8ююз4119456 0.1 1011259
12:00−5ююз5109387 0.0 1012425
15:00−5ююз4993100 0.0 1013396
18:00−11ююв229993 0.0 101412
21:00−5ю2694100 0.1 1016213
23 января, вс
вс2300:00−5ююв2493100 0.0 1017104
03:00−5юв2295100 0.1 101864
06:00−9вюв1197100 0.0 101918
09:00−10всв1197100 0.0 102235
12:00−5всв3794100 0.0 1022233
15:00−4св51093100 0.0 1022436
18:00−5ссв61293100 0.0 1023372
21:00−5ссв71495100 0.3 1023495
24 января, пн
пн2400:00−4св71395100 0.6 1023459
03:00−3св61295100 1.3 1023557
06:00−4всв61294100 0.1 1024543
09:00−6всв6139149 0.3 1025439
12:00−6всв6119283 0.0 1026416
15:00−6всв51092100 0.0 1026449
18:00−8всв51194100 0.0 1026287
21:00−8всв4995100 0.1 1026284
25 января, вт
вт2500:00−8всв5994100 0.2 1026283
03:00−8в3896100 0.4 1025252
06:00−7в379679 0.4 1024211
09:00−11вюв259896 0.4 102567
12:00−5ююв259691 0.1 1024195
15:00−1ю3693100 0.1 1023415
18:00−2юв1197100 0.0 102328
21:00−2ююв1295100 0.0 102249
26 января, ср
ср2600:00−4ююз2595100 0.0 102288
03:00−8ююз229898 0.0 102226
06:00−13юз2110099 0.0 102210
09:00−15юз11100100 0.0 10229
12:00−6ююз1193100 0.0 1022104
15:00−3юв2394100 0.0 1022281
18:00−8вюв12100100 0.0 102239
21:00−9в12100100 0.1 102351